Regional Weather Roundup
Issued by NWS Cleveland, OH

Home | Current Version | Previous Version | Graphics & Text | Print | Product List | Glossary On
Versions: 1 2 3 4 5 6 7 8 9 10 11 12 13 14 15 16 17 18 19 20 21 22 23 24 25 26 27 28 29 30 31 32 33 34 35 36 37 38 39 40 41 42 43 44 45 46 47 48 49 50
000
ASUS41 KCLE 270710
RWRCLE
OHIO REGIONAL WEATHER ROUNDUP
NATIONAL WEATHER SERVICE WILMINGTON, OH
300 AM EDT FRI MAY 27 2016

NOTE: "FAIR" INDICATES FEW OR NO CLOUDS BELOW 12,000 FEET WITH NO
SIGNIFICANT WEATHER AND/OR OBSTRUCTIONS TO VISIBILITY.

OHZ001>008-015>018-024>027-034-035-043-044-270800-
   NORTHWEST OHIO

CITY           SKY/WX    TMP DP  RH WIND       PRES   REMARKS
DEFIANCE       FAIR      66  60  81 S5        29.96S
FINDLAY        FAIR      65  58  78 S7        29.97S
TOLEDO EXPRESS FAIR      66  61  84 S6        29.95S
TOLEDO EXEC    FAIR      69  62  78 SW8       29.96F
LIMA           FAIR      64  61  90 S8        29.98F
$$

OHZ009>014-019>023-028>033-038-089-270800-
   NORTHEAST OHIO

CITY           SKY/WX    TMP DP  RH WIND       PRES   REMARKS
CLE-HOPKINS    FAIR      72  65  78 S9        30.00F
CLE-LAKEFRONT  FAIR      73  66  78 S9        29.97F
CUY CO. ARPT   NOT AVBL
LORAIN-ELYRIA  FAIR      68  62  81 SW7       29.99F
ASHTABULA      MOCLDY    71  66  84 S8        30.02R
AKRON-CANTON   FAIR      69  64  84 S9        30.02F
WOOSTER        FAIR      67  65  93 SW6       30.02F
MANSFIELD      FAIR      66  62  87 S8        30.02S
YOUNGSTOWN     MOCLDY    69  64  84 S7        30.03S
$$

OHZ042-051>053-060>062-070>072-077>081-270800-
  SOUTHWEST OHIO

CITY           SKY/WX    TMP DP  RH WIND       PRES   REMARKS
CINC-COVINGTON MOCLDY    63  62  97 S6        30.03S
CINC-LUNKEN    FOG       60  60 100 CALM      30.04S VSB 1/4
HAMILTON       FAIR      65  63  93 CALM      30.03S
DAYTON         FAIR      65  62  90 S10       30.03R
WRIGHT-PAT AFB FAIR      64  64 100 S7        30.02R
DAYTON GENERAL FAIR      64  61  90 S7        30.01F
WILMINGTON     FAIR      63  62  97 S8        30.03S
$$

OHZ036-037-039>041-045>050-054>059-063>069-073>076-082>088-270800-
  CENTRAL AND SOUTHEAST OHIO

CITY           SKY/WX    TMP DP  RH WIND       PRES   REMARKS
COLUMBUS       FAIR      67  63  87 S5        30.02S
OSU AIRPORT    NOT AVBL
BOLTON FIELD   FAIR      64  62  94 S6        30.03S
RICKENBACK AFB FAIR      66  62  89 S5        30.02S
NEWARK         FAIR      66  62  87 SW3       30.03S
MARION         FAIR      65  61  87 S7        30.01F
LANCASTER      FAIR      65  60  84 CALM      30.03F
ZANESVILLE     FAIR      68  63  84 SE3       30.04S
NEW PHILLY     FAIR      69  64  84 SE5       30.03F
$$




USA.gov is the U.S. government's official web portal to all federal, state and local government web resources and services.